#timestamp,LO_Frequency,Hit,StdDev 
1584466715.4,286047049.8,P
1584466735.3,286047051.7,P
1584466755.1,286047051.1,P
1584466775.9,286047053.7,Y
1584466795.7,286047003.8,P
1584466815.5,286047003.1,N
1584466835.4,286047003.0,N
1584466855.2,286047005.3,N
1584466875.0,286047004.6,N
1584466876.0,286047004.6,N
1584466895.8,286047007.0,N
1584466915.6,286047008.6,N
1584466935.5,286047010.2,N
1584466955.3,286047011.1,N
1584466975.1,286047011.5,N
1584466995.9,286047013.6,N
1584467015.7,286047012.5,N
1584467035.5,286047014.7,N
1584467055.4,286047014.2,N
1584467075.2,286047018.4,N
1584467095.1,286047018.8,N
1584467096.0,286047018.8,N
1584467115.8,286047017.5,N
1584467135.6,286047020.0,N
1584467155.5,286047017.3,N
1584467175.3,286047019.5,N
1584467195.1,286047021.6,N
1584467215.9,286047021.5,N
1584467235.7,286047021.5,N
1584467255.6,286047021.7,N
1584467275.4,286047021.3,N
1584467295.2,286047022.9,N
1584467315.1,286047022.8,N
1584467316.0,286047022.8,N
1584467335.8,286047023.9,Y
1584467355.7,286047012.2,P
1584467375.5,286047013.3,P
1584467395.3,286047012.9,P
1584467415.2,286047015.6,Y
1584467435.0,286047000.4,P
1584467435.9,286047000.4,N
1584467455.7,286047002.1,N
1584467475.6,286047002.3,N
1584467495.4,286047002.7,N
1584467515.3,286047002.6,N
1584467535.1,286047002.0,N
1584467536.0,286047002.0,N
1584467555.8,286047003.9,N
1584467575.7,286047003.2,N
1584467595.5,286047003.4,N
1584467615.3,286047005.4,N
1584467635.2,286047006.0,N
1584467655.0,286047004.8,N
1584467655.9,286047004.8,N
1584467675.8,286047004.7,N
1584467695.6,286047007.1,N
1584467715.4,286047006.3,N
1584467735.3,286047006.6,N
1584467755.1,286047006.1,N
1584467775.8,286047008.2,N
1584467795.7,286047008.5,N
1584467815.5,286047007.7,N
1584467835.4,286047012.0,Y
1584467855.2,286047007.4,P
1584467875.0,286047009.0,P
1584467875.9,286047009.0,P
1584467895.8,286047010.1,Y
1584467915.6,286047004.2,P
1584467935.5,286047003.0,N
1584467955.3,286047005.9,P
1584467975.1,286047007.5,Y
1584467995.9,286047001.3,P
